DM3FAM-13 Weather Reports


time (UTC)temp
C
wind
direction
speed
KPH
gust
KPH
rain 1hr
cm
rain 24hr
cm
rain mn
cm
humidity
%
barometer
mb
20260502163031 23 45 1.6 6.4 0.00 0.00 0.00 44 1016.9
20260502162030 25 36 1.6 4.8 0.00 0.00 0.00 40 1017.2
20260502161030 25 33 0.0 3.2 0.00 0.00 0.00 39 1017.2
20260502152030 27 33 1.6 12.9 0.00 0.00 0.00 36 1017.7
20260502151030 27 196 1.6 4.8 0.00 0.00 0.00 35 1017.7
20260502123029 25 187 4.8 11.3 0.00 0.00 0.00 41 1020.0
20260502122029 25 36 3.2 12.9 0.00 0.00 0.00 42 1020.1
20260502121030 25 191 6.4 12.9 0.00 0.00 0.00 42 1020.1
20260502115031 24 162 4.8 9.7 0.00 0.00 0.00 41 1020.5
20260502114030 24 195 1.6 6.4 0.00 0.00 0.00 43 1020.5
20260502113030 24 171 4.8 12.9 0.00 0.00 0.00 42 1020.8
20260502112030 24 174 4.8 9.7 0.00 0.00 0.00 42 1020.7
20260502111030 23 216 4.8 14.5 0.00 0.00 0.00 42 1020.9
20260502110031 24 209 1.6 4.8 0.00 0.00 0.00 42 1021.0
20260502105030 23 202 3.2 11.3 0.00 0.00 0.00 42 1021.1
20260502104030 24 176 3.2 9.7 0.00 0.00 0.00 42 1021.2
20260502103031 24 33 1.6 6.4 0.00 0.00 0.00 44 1021.3
20260502102030 25 181 1.6 4.8 0.00 0.00 0.00 41 1021.5
20260502101030 23 145 0.0 3.2 0.00 0.00 0.00 45 1021.7
20260502091031 21 197 4.8 11.3 0.00 0.00 0.00 48 1022.3
20260502071030 14 198 0.0 3.2 0.00 0.00 0.00 63 1022.8
20260502070031 13 52 0.0 1.6 0.00 0.00 0.00 67 1022.9
20260502065031 12 52 0.0 1.6 0.00 0.00 0.00 67 1022.8
20260502064031 11 51 0.0 1.6 0.00 0.00 0.00 77 1022.9
20260502063031 10 47 1.6 3.2 0.00 0.00 0.00 79 1022.8
20260502062030 10 35 1.6 3.2 0.00 0.00 0.00 80 1022.9
20260502061031 9 32 1.6 3.2 0.00 0.00 0.00 83 1023.0
20260502060030 8 38 0.0 3.2 0.00 0.00 0.00 83 1022.9
20260502055030 8 45 1.6 3.2 0.00 0.00 0.00 83 1023.0
20260502054030 8 0.0 0.0 0.00 0.00 0.00 83 1023.0
20260502053030 7 39 1.6 3.2 0.00 0.00 0.00 82 1023.0
20260502052031 7 25 1.6 1.6 0.00 0.00 0.00 83 1022.9
20260502051029 7 23 0.0 1.6 0.00 0.00 0.00 83 1022.8
20260502050031 7 39 0.0 1.6 0.00 0.00 0.00 84 1022.9
20260502045030 6 43 1.6 3.2 0.00 0.00 0.00 85 1022.8
20260502044030 6 43 0.0 1.6 0.00 0.00 0.00 84 1022.8
20260502043030 6 43 1.6 3.2 0.00 0.00 0.00 85 1022.8
20260502042030 6 0.0 1.6 0.00 0.00 0.00 84 1022.9
20260502041030 5 35 1.6 3.2 0.00 0.00 0.00 84 1022.9
20260502040031 6 38 1.6 1.6 0.00 0.00 0.00 84 1022.9
20260502035031 6 33 0.0 3.2 0.00 0.00 0.00 84 1022.9
20260502034030 5 0.0 1.6 0.00 0.00 0.00 84 1022.8
20260502033031 6 32 3.2 3.2 0.00 0.00 0.00 82 1022.9
20260502032031 6 29 0.0 1.6 0.00 0.00 0.00 82 1022.8
20260502031030 6 37 1.6 3.2 0.00 0.00 0.00 82 1022.8
20260502030030 6 49 1.6 3.2 0.00 0.00 0.00 83 1022.9
20260502025030 6 49 0.0 1.6 0.00 0.00 0.00 82 1022.9
20260502024030 6 0.0 1.6 0.00 0.00 0.00 82 1023.0
20260502022029 7 0.0 1.6 0.00 0.00 0.00 79 1022.9
20260502021029 7 52 1.6 3.2 0.00 0.00 0.00 76 1022.9
20260502020030 7 32 1.6 3.2 0.00 0.00 0.00 76 1022.9
20260502015030 7 40 1.6 3.2 0.00 0.00 0.00 76 1022.9
20260502014030 7 37 3.2 4.8 0.00 0.00 0.00 78 1023.1
20260502013030 7 33 1.6 3.2 0.00 0.00 0.00 77 1023.1
20260502012030 7 36 0.0 3.2 0.00 0.00 0.00 76 1023.1
20260502011030 7 30 1.6 3.2 0.00 0.00 0.00 75 1023.1
20260502010031 7 39 1.6 3.2 0.00 0.00 0.00 74 1023.1
20260502005030 7 40 3.2 4.8 0.00 0.00 0.00 75 1023.3
20260502004030 7 30 1.6 3.2 0.00 0.00 0.00 75 1023.3
20260502003030 7 34 1.6 4.8 0.00 0.00 0.00 74 1023.3
20260502002030 8 42 1.6 3.2 0.00 0.00 0.00 72 1023.5
20260502001030 7 38 3.2 4.8 0.00 0.00 0.00 74 1023.4
20260502000031 7 29 1.6 3.2 0.00 0.00 0.00 78 1023.5
20260501235031 7 31 1.6 4.8 0.00 0.00 0.00 78 1023.7
20260501234031 7 16 1.6 3.2 0.00 0.00 0.00 77 1023.6
20260501233031 7 20 1.6 3.2 0.00 0.00 0.00 75 1023.6
20260501232030 7 26 1.6 3.2 0.00 0.00 0.00 74 1023.7
20260501231031 7 26 1.6 3.2 0.00 0.00 0.00 73 1023.7
20260501230031 7 37 1.6 1.6 0.00 0.00 0.00 75 1023.8
20260501225030 7 29 1.6 4.8 0.00 0.00 0.00 75 1023.8
20260501224030 7 30 0.0 1.6 0.00 0.00 0.00 73 1023.7
20260501223031 8 34 1.6 3.2 0.00 0.00 0.00 73 1023.7
20260501222030 8 30 0.0 3.2 0.00 0.00 0.00 70 1023.8
20260501221030 9 25 1.6 4.8 0.00 0.00 0.00 70 1023.7
20260501220030 8 36 1.6 4.8 0.00 0.00 0.00 69 1023.8
20260501215031 8 23 3.2 4.8 0.00 0.00 0.00 72 1023.6
20260501214031 8 22 1.6 3.2 0.00 0.00 0.00 72 1023.7
20260501213030 7 31 3.2 4.8 0.00 0.00 0.00 75 1023.6
20260501212030 8 32 1.6 3.2 0.00 0.00 0.00 73 1023.6
20260501211030 8 41 1.6 3.2 0.00 0.00 0.00 73 1023.6
20260501210031 8 31 1.6 3.2 0.00 0.00 0.00 72 1023.7
20260501205031 8 37 1.6 4.8 0.00 0.00 0.00 74 1023.5
20260501204030 8 26 1.6 3.2 0.00 0.00 0.00 76 1023.5
20260501203031 8 29 1.6 3.2 0.00 0.00 0.00 75 1023.4
20260501202030 9 35 3.2 4.8 0.00 0.00 0.00 73 1023.5
20260501201030 10 31 1.6 3.2 0.00 0.00 0.00 71 1023.7
20260501200030 10 36 1.6 4.8 0.00 0.00 0.00 73 1023.6
20260501195030 10 36 4.8 4.8 0.00 0.00 0.00 71 1023.4
20260501194030 10 37 1.6 4.8 0.00 0.00 0.00 73 1023.5
20260501193030 10 39 3.2 4.8 0.00 0.00 0.00 73 1023.3
20260501192030 11 31 1.6 3.2 0.00 0.00 0.00 72 1023.3
20260501191030 11 27 1.6 4.8 0.00 0.00 0.00 71 1023.3
20260501190030 12 37 3.2 4.8 0.00 0.00 0.00 69 1023.3
20260501185030 12 37 1.6 4.8 0.00 0.00 0.00 67 1023.1
20260501184030 13 38 1.6 4.8 0.00 0.00 0.00 66 1023.0
20260501183030 13 37 3.2 4.8 0.00 0.00 0.00 65 1022.8
20260501182030 14 39 3.2 4.8 0.00 0.00 0.00 63 1022.7
20260501181030 15 42 1.6 4.8 0.00 0.00 0.00 63 1022.6
20260501180031 15 31 1.6 4.8 0.00 0.00 0.00 59 1022.5
20260501175031 15 36 0.0 3.2 0.00 0.00 0.00 60 1022.4
20260501174031 16 32 1.6 4.8 0.00 0.00 0.00 58 1022.3
20260501173030 16 39 1.6 3.2 0.00 0.00 0.00 59 1022.3
20260501172030 17 41 1.6 3.2 0.00 0.00 0.00 58 1022.3
20260501171030 17 43 1.6 4.8 0.00 0.00 0.00 55 1022.3
20260501170030 18 44 1.6 4.8 0.00 0.00 0.00 51 1022.2
20260501165030 18 42 1.6 3.2 0.00 0.00 0.00 50 1022.3
20260501164030 20 35 3.2 4.8 0.00 0.00 0.00 48 1022.2